Regional Weather Roundup
Issued by NWS Cleveland, OH

Home | Current Version | Previous Version | Text Only | Print | Product List | Glossary On
Versions: 1 2 3 4 5 6 7 8 9 10 11 12 13 14 15 16 17 18 19 20 21 22 23 24 25 26 27 28 29 30 31 32 33 34 35 36 37 38 39 40 41 42 43 44 45 46 47 48 49 50
000
ASUS41 KCLE 240910
RWRCLE
OHIO REGIONAL WEATHER ROUNDUP
NATIONAL WEATHER SERVICE CLEVELAND, OH
400 AM EST MON NOV 24 2014

NOTE: "FAIR" INDICATES FEW OR NO CLOUDS BELOW 12,000 FEET WITH NO
SIGNIFICANT WEATHER AND/OR OBSTRUCTIONS TO VISIBILITY.

OHZ001>008-015>018-024>027-034-035-043-044-241000-
   NORTHWEST OHIO

CITY           SKY/WX    TMP DP  RH WIND       PRES   REMARKS
DEFIANCE       LGT RAIN  56  52  86 SW22G32   29.16R
FINDLAY        CLOUDY    59  54  83 SW24G32   29.19R
TOLEDO EXPRESS CLOUDY    56  53  90 SW20G30   29.13R
TOLEDO EXEC    CLOUDY    58  53  84 SW26G41   29.14R
LIMA           CLOUDY    58 N/A N/A SW20G29   29.22R
$$

OHZ009>014-019>023-028>033-038-089-241000-
   NORTHEAST OHIO

CITY           SKY/WX    TMP DP  RH WIND       PRES   REMARKS
CLE-HOPKINS    LGT RAIN  57  53  86 S17G35    29.24S
CLE-LAKEFRONT  CLOUDY    59  53  80 S21G33    29.21S
CUY CO. ARPT   NOT AVBL
LORAIN-ELYRIA  CLOUDY    57  54  89 S24G33    29.22R
ASHTABULA      CLOUDY    57  52  83 S17G31    29.27F
AKRON-CANTON   LGT RAIN  57  53  86 S23G32    29.30R FOG
WOOSTER        LGT RAIN N/A N/A N/A SW20G32   29.29R
MANSFIELD      CLOUDY    57  55  93 S29G43    29.26R
YOUNGSTOWN     LGT RAIN  56  53  90 S14G24    29.31S
$$

OHZ042-051>053-060>062-070>072-077>081-241000-
  SOUTHWEST OHIO

CITY           SKY/WX    TMP DP  RH WIND       PRES   REMARKS
CINC-COVINGTON CLOUDY    59  54  83 SW10G18   29.34S
CINC-LUNKEN    CLOUDY    59  56  89 SW17G23   29.35S
HAMILTON       CLOUDY    60  56  86 SW13G24   29.33R
DAYTON         CLOUDY    59  55  87 SW20G31   29.30R
WRIGHT-PAT AFB MOCLDY    59  55  87 S23G29    29.30R
DAYTON GENERAL CLOUDY    59  55  87 SW16G26   29.32R
WILMINGTON     CLOUDY    57  54  89 SW22G30   29.34R
$$

OHZ036-037-039>041-045>050-054>059-063>069-073>076-082>088-241000-
  CENTRAL AND SOUTHEAST OHIO

CITY           SKY/WX    TMP DP  RH WIND       PRES   REMARKS
COLUMBUS       CLOUDY    59  54  83 SW15G25   29.34R
OSU AIRPORT    CLOUDY    58  54  86 S18G32    29.32R
BOLTON FIELD   CLOUDY    58  55  89 S23G29    29.34R
RICKENBACK AFB CLOUDY    58  54  85 S22G29    29.35R
NEWARK         CLOUDY    59  54  83 SW18G28   29.35R
MARION         CLOUDY    58  54  86 SW26G35   29.27R
LANCASTER      CLOUDY    60  53  77 SW15G25   29.37R
ZANESVILLE     CLOUDY    59  53  80 SW22G33   29.38R
NEW PHILLY     LGT RAIN  59  55  87 S13G26    29.36R FOG
$$


USA.gov is the U.S. government's official web portal to all federal, state and local government web resources and services.